Stations météo

réclame
Mon MeteoGroup
Fyvie castle, Grande-Bretagne (99010): Température de l'air & dewpoint: 14.01.2019 22:00:00 - 20.01.2019 22:00:00 (GMT)Fyvie castle, Grande-Bretagne (99010): Quantités de précipitations: 14.01.2019 22:00:00 - 20.01.2019 22:00:00 (GMT)
Date & Time tt [°C] td [°C] rr [mm]
20.01.2019 22:00:00 - - -
20.01.2019 21:00:00 0,3 -1,8 0,0
20.01.2019 20:00:00 1,3 -0,8 0,0
20.01.2019 19:00:00 1,2 -0,2 0,0
20.01.2019 18:00:00 0,4 -0,9 0,0
20.01.2019 17:00:00 1,8 -0,4 0,0
20.01.2019 16:00:00 2,9 0,3 0,0
20.01.2019 15:00:00 3,2 0,4 0,0
20.01.2019 14:00:00 3,7 1,3 0,0
20.01.2019 13:00:00 3,1 1,8 0,0
20.01.2019 12:00:00 2,4 2,2 0,2
20.01.2019 11:00:00 -1,2 -1,3 0,0
20.01.2019 10:00:00 -2,4 -2,6 0,0
20.01.2019 09:00:00 -4,3 -4,9 0,0
20.01.2019 08:00:00 -3,7 -4,3 0,0
20.01.2019 07:00:00 -2,8 -3,1 0,0
20.01.2019 06:00:00 -3,6 -3,9 0,0
20.01.2019 05:00:00 -4,0 -4,4 0,0
20.01.2019 04:00:00 -3,9 -4,2 0,0
20.01.2019 03:00:00 -3,4 -3,8 0,0
20.01.2019 02:00:00 -2,4 -2,8 0,0
20.01.2019 01:00:00 -0,6 -0,8 0,0
20.01.2019 00:00:00 -0,5 -0,5 0,0
19.01.2019 23:00:00 -0,8 -0,9 0,0
19.01.2019 22:00:00 -1,7 -1,8 0,0
19.01.2019 21:00:00 -2,3 -2,6 0,0
19.01.2019 20:00:00 -1,8 -2,1 0,0
19.01.2019 19:00:00 -1,4 -1,6 0,0
19.01.2019 18:00:00 -1,9 -2,4 0,0
19.01.2019 17:00:00 -1,3 -2,1 0,0
19.01.2019 16:00:00 0,4 -0,9 0,0
19.01.2019 15:00:00 3,6 0,3 0,0
19.01.2019 14:00:00 4,4 0,8 0,0
19.01.2019 13:00:00 3,4 1,1 0,0
19.01.2019 12:00:00 2,9 1,2 0,0
19.01.2019 11:00:00 2,1 1,7 0,0
19.01.2019 10:00:00 1,0 0,8 0,0
19.01.2019 09:00:00 0,8 0,6 0,0
19.01.2019 08:00:00 0,7 0,4 0,0
19.01.2019 07:00:00 0,6 0,2 0,0
19.01.2019 06:00:00 0,8 0,4 0,0
19.01.2019 05:00:00 1,2 0,7 0,0
19.01.2019 04:00:00 1,1 0,5 0,0
19.01.2019 03:00:00 1,4 0,9 0,0
19.01.2019 02:00:00 2,0 1,0 0,0
19.01.2019 01:00:00 2,5 1,5 0,0
19.01.2019 00:00:00 2,6 1,5 0,0
18.01.2019 23:00:00 2,6 1,3 0,0
18.01.2019 22:00:00 2,3 1,0 0,0
18.01.2019 21:00:00 2,8 1,5 0,2
18.01.2019 20:00:00 0,0 -0,8 0,0
18.01.2019 19:00:00 -1,0 -1,8 0,0
18.01.2019 18:00:00 -0,2 -2,5 0,0
18.01.2019 17:00:00 1,3 -1,5 0,0
18.01.2019 16:00:00 2,1 -0,9 0,0
18.01.2019 15:00:00 3,9 -0,4 0,0
18.01.2019 14:00:00 3,1 -0,7 0,0
18.01.2019 13:00:00 2,4 -0,7 0,2
18.01.2019 12:00:00 0,5 -0,6 0,0
18.01.2019 11:00:00 -1,7 -1,9 0,0
18.01.2019 10:00:00 -3,6 -3,9 0,0
18.01.2019 09:00:00 -4,6 -5,0 0,0
18.01.2019 08:00:00 -4,6 -5,0 0,0
18.01.2019 07:00:00 -4,6 -5,0 0,0
18.01.2019 06:00:00 -4,4 -4,8 0,0
18.01.2019 05:00:00 -4,3 -4,7 0,0
18.01.2019 04:00:00 -4,1 -4,6 0,0
18.01.2019 03:00:00 -3,6 -4,0 0,0
18.01.2019 02:00:00 -3,3 -3,8 0,0
18.01.2019 01:00:00 -2,9 -3,4 0,0
18.01.2019 00:00:00 -2,7 -3,5 0,0
17.01.2019 23:00:00 -1,5 -2,6 0,0
17.01.2019 22:00:00 -0,2 -2,3 0,0
17.01.2019 21:00:00 0,7 -1,9 0,0
17.01.2019 20:00:00 0,9 -1,1 0,0
17.01.2019 19:00:00 1,0 -0,5 0,0
17.01.2019 18:00:00 0,8 -0,5 0,0
17.01.2019 17:00:00 1,7 -0,4 0,0
17.01.2019 16:00:00 2,2 -0,4 0,0
17.01.2019 15:00:00 2,9 0,0 0,8
17.01.2019 14:00:00 3,6 -0,2 1,6
17.01.2019 13:00:00 4,2 -1,6 1,2
17.01.2019 12:00:00 4,2 -1,3 0,0
17.01.2019 11:00:00 1,8 -0,6 0,0
17.01.2019 10:00:00 1,8 0,1 0,0
17.01.2019 09:00:00 1,5 -0,6 0,0
17.01.2019 08:00:00 2,2 -1,7 0,0
17.01.2019 07:00:00 2,7 -2,9 0,0
17.01.2019 06:00:00 3,0 -2,5 0,0
17.01.2019 05:00:00 2,6 -2,7 0,0
17.01.2019 04:00:00 0,7 -0,7 0,0
17.01.2019 03:00:00 0,9 -1,3 0,0
17.01.2019 02:00:00 0,5 -2,6 0,0
17.01.2019 01:00:00 0,4 -1,4 0,0
17.01.2019 00:00:00 0,8 -2,3 0,0
16.01.2019 23:00:00 1,5 -2,5 0,0
16.01.2019 22:00:00 1,0 -1,1 0,0
16.01.2019 21:00:00 1,2 0,4 1,0
16.01.2019 20:00:00 2,0 1,2 2,2
16.01.2019 19:00:00 2,9 2,4 0,4
16.01.2019 18:00:00 1,7 1,2 1,8
16.01.2019 17:00:00 3,1 2,5 0,2
16.01.2019 16:00:00 2,6 1,9 0,4
16.01.2019 15:00:00 3,1 2,1 1,0
16.01.2019 14:00:00 4,1 3,4 0,2
16.01.2019 13:00:00 4,2 3,1 0,2
16.01.2019 12:00:00 4,3 3,3 0,0
16.01.2019 11:00:00 4,3 3,3 0,0
16.01.2019 10:00:00 3,8 3,0 0,4
16.01.2019 09:00:00 3,9 3,0 1,2
16.01.2019 08:00:00 5,1 3,3 0,0
16.01.2019 07:00:00 5,7 2,9 0,0
16.01.2019 06:00:00 6,3 3,2 0,2
16.01.2019 05:00:00 6,0 4,1 0,0
16.01.2019 04:00:00 7,1 4,0 0,0
16.01.2019 03:00:00 7,5 4,4 0,0
16.01.2019 02:00:00 7,7 6,8 0,8
16.01.2019 01:00:00 8,1 5,9 0,2
16.01.2019 00:00:00 7,5 5,2 0,0
15.01.2019 23:00:00 7,0 4,2 0,0
15.01.2019 22:00:00 7,9 4,6 0,0
15.01.2019 21:00:00 8,1 4,6 0,0
15.01.2019 20:00:00 8,2 4,8 0,0
15.01.2019 19:00:00 7,5 4,9 0,0
15.01.2019 18:00:00 7,7 5,4 0,0
15.01.2019 17:00:00 7,0 6,7 0,0
15.01.2019 16:00:00 6,2 5,9 0,2
15.01.2019 15:00:00 6,7 6,4 0,6
15.01.2019 14:00:00 6,9 6,5 0,6
15.01.2019 13:00:00 7,2 6,9 0,6
15.01.2019 12:00:00 7,6 7,5 0,2
15.01.2019 11:00:00 6,9 6,7 0,4
15.01.2019 10:00:00 6,3 6,0 0,2
15.01.2019 09:00:00 6,6 6,1 0,0
15.01.2019 08:00:00 7,1 6,3 0,0
15.01.2019 07:00:00 7,6 6,8 0,8
15.01.2019 06:00:00 9,7 7,9 0,0
15.01.2019 05:00:00 9,7 7,1 0,0
15.01.2019 04:00:00 9,4 6,5 0,0
15.01.2019 03:00:00 8,2 5,4 0,0
15.01.2019 02:00:00 8,1 5,0 0,0
15.01.2019 01:00:00 5,7 4,2 0,0
15.01.2019 00:00:00 4,2 2,7 0,0
14.01.2019 23:00:00 4,7 2,5 0,0
14.01.2019 22:00:00 5,1 2,3 0,0

tt = Température de l'air
td = dewpoint
rr = Quantités de précipitations

stations d'obs. à proximité